FW6107 Great Neck NY US current weather conditions

sailwx.info

Wind from 141 at 6 knots gusting 14

Air temperature 11.1° C
Dewpoint 10.5° C

Last reported at 2019-Dec-09 23:02 UTC.
Time now 2019-Dec-09 23:26 UTC

Location: N 40°48' W 073°43'.
View on Google Maps.

See reports from other nearby stations

  
Tides and Currents Weather Stations Pressure Air Temp Water Temp Dewpoint Dewpoint Depression Visibility Wind Speed Wind Dir Waves Ship Positions
date/time (UTC)wind fromknots sea level pressurealtimeterstation pressurevisibilityair tempwater tempwave heightnotes
2019-Dec-09 23:02 141 6 gusting 14 11.1
2019-Dec-09 22:57 133 3 gusting 14 11.1
2019-Dec-09 22:52 208 6 gusting 11 11.1
2019-Dec-09 22:46 143 5 gusting 8 11.1
2019-Dec-09 22:41 097 2 gusting 6 11.1
2019-Dec-09 22:36 111 1 gusting 6 11.1
2019-Dec-09 22:31 237 2 gusting 6 11.1
2019-Dec-09 22:26 152 11.1
2019-Dec-09 22:21 193 3 gusting 6 11.1
2019-Dec-09 22:15 121 11.1
2019-Dec-09 22:10 206 11.1
2019-Dec-09 22:05 193 4 gusting 6 11.1
2019-Dec-09 22:00 108 11.1
2019-Dec-09 21:55 118 11.1
2019-Dec-09 21:50 078 11.1
2019-Dec-09 21:45 264 1 gusting 6 11.1
2019-Dec-09 21:40 157 11.1
2019-Dec-09 21:34 146 1 gusting 8 11.1
2019-Dec-09 21:29 173 2 gusting 8 11.1
2019-Dec-09 21:24 084 1 gusting 8 11.1
2019-Dec-09 21:19 139 2 gusting 6 11.1
2019-Dec-09 21:14 054 11.1
2019-Dec-09 21:09 140 0 gusting 6 11.1
2019-Dec-09 21:03 170 1 gusting 6 11.1
2019-Dec-09 20:58 097 11.1
2019-Dec-09 20:53 138 1 gusting 6 11.1
2019-Dec-09 20:48 137 1 gusting 4 11.1
2019-Dec-09 20:43 108 11.1
2019-Dec-09 20:38 101 11.1
2019-Dec-09 20:33 126 1 gusting 4 11.1
2019-Dec-09 20:28 123 11.1
2019-Dec-09 20:22 171 0 gusting 4 11.1
2019-Dec-09 20:17 222 1 gusting 4 11.1
2019-Dec-09 20:12 140 1 gusting 4 11.7
2019-Dec-09 20:07 101 11.7
2019-Dec-09 20:02 128 11.1
2019-Dec-09 19:57 127 11.1
2019-Dec-09 19:52 232 1 gusting 6 11.1
2019-Dec-09 19:47 197 1 gusting 6 11.1
2019-Dec-09 19:41 087 11.7
2019-Dec-09 19:36 192 1 gusting 6 11.1
2019-Dec-09 19:31 060 11.1
2019-Dec-09 19:26 206 0 gusting 6 11.7
2019-Dec-09 19:21 005 11.7
2019-Dec-09 19:16 254 11.7
2019-Dec-09 19:11 199 2 gusting 4 11.7
2019-Dec-09 19:06 101 11.7
2019-Dec-09 19:00 176 2 gusting 6 11.7
2019-Dec-09 18:55 203 11.7
2019-Dec-09 18:50 179 11.7
2019-Dec-09 18:45 209 11.7
2019-Dec-09 18:40 076 0 gusting 6 11.7
2019-Dec-09 18:35 147 11.7
2019-Dec-09 18:29 128 1 gusting 8 11.7
2019-Dec-09 18:24 219 3 gusting 8 11.7
2019-Dec-09 18:19 177 1 gusting 6 11.7
2019-Dec-09 18:14 156 11.7
2019-Dec-09 18:09 191 1 gusting 6 11.7
2019-Dec-09 18:04 166 2 gusting 8 11.7
2019-Dec-09 17:59 163 0 gusting 8 11.7
2019-Dec-09 17:54 216 1 gusting 11 11.7
2019-Dec-09 17:48 145 2 gusting 11 11.7
2019-Dec-09 17:43 158 0 gusting 6 12.2
2019-Dec-09 17:34 212 2 gusting 6 12.2
2019-Dec-09 17:28 213 12.2
2019-Dec-09 17:23 163 0 gusting 11 11.7
2019-Dec-09 17:17 159 5 gusting 11 11.7
2019-Dec-09 17:12 199 5 gusting 8 11.7
2019-Dec-09 17:07 186 2 gusting 8 11.7
2019-Dec-09 17:02 163 3 gusting 13 11.7
2019-Dec-09 16:57 118 3 gusting 13 11.7
2019-Dec-09 16:52 121 2 gusting 11 11.7
2019-Dec-09 16:46 094 4 gusting 11 11.7
2019-Dec-09 16:41 161 1 gusting 11 11.7
2019-Dec-09 16:36 172 5 gusting 11 11.7
2019-Dec-09 16:31 122 4 gusting 8 12.2
2019-Dec-09 16:26 171 4 gusting 11 12.2
2019-Dec-09 16:21 172 1 gusting 13 12.2
2019-Dec-09 16:16 130 6 gusting 13 12.2
2019-Dec-09 16:10 158 5 gusting 13 12.2
2019-Dec-09 16:05 197 5 gusting 14 12.2
2019-Dec-09 16:00 130 7 gusting 14 12.2
2019-Dec-09 15:55 114 5 gusting 13 12.2
2019-Dec-09 15:50 134 6 gusting 13 12.8
2019-Dec-09 15:45 176 6 gusting 11 12.8
2019-Dec-09 15:40 138 4 gusting 17 12.8
2019-Dec-09 15:35 094 4 gusting 19 12.8
2019-Dec-09 15:29 151 8 gusting 19 12.8
2019-Dec-09 15:24 144 2 gusting 19 12.8
2019-Dec-09 15:19 173 8 gusting 19 12.8
2019-Dec-09 15:14 354 3 gusting 26 12.8
2019-Dec-09 15:09 100 5 gusting 26 12.8
2019-Dec-09 15:04 210 2 gusting 24 12.8
2019-Dec-09 14:59 156 4 gusting 14 12.2
2019-Dec-09 14:53 150 6 gusting 26 12.2
2019-Dec-09 14:48 140 12 gusting 26 12.2
2019-Dec-09 14:43 127 6 gusting 21 12.2
2019-Dec-09 14:38 131 3 gusting 19 12.2
2019-Dec-09 14:33 149 10 gusting 19 11.7
2019-Dec-09 14:28 197 4 gusting 14 11.7
2019-Dec-09 14:23 070 11.1
2019-Dec-09 14:17 130 3 gusting 11 10.6
2019-Dec-09 14:12 128 1 gusting 13 9.4
2019-Dec-09 14:07 136 1 gusting 13 7.8
2019-Dec-09 14:02 230 8.3
2019-Dec-09 13:57 172 0 gusting 6 6.7
2019-Dec-09 13:52 288 0 gusting 4 5.6
2019-Dec-09 13:46 332 5.6
2019-Dec-09 13:41 061 5.6
2019-Dec-09 13:36 071 5.6
2019-Dec-09 13:31 081 5.6
2019-Dec-09 13:26 077 5.6
2019-Dec-09 13:21 059 5.6
2019-Dec-09 13:15 079 5.6
2019-Dec-09 13:10 052 5.6
2019-Dec-09 13:05 177 5.6
2019-Dec-09 13:00 048 5.6
2019-Dec-09 12:55 078 5.6
2019-Dec-09 12:50 025 5.0
2019-Dec-09 12:44 050 5.0
2019-Dec-09 12:39 040 5.0
2019-Dec-09 12:34 037 5.6
2019-Dec-09 12:29 081 5.6
2019-Dec-09 12:24 061 5.0
2019-Dec-09 12:19 061 1 gusting 6 5.0
2019-Dec-09 12:14 063 1 gusting 6 5.0
2019-Dec-09 12:09 074 5.6
2019-Dec-09 12:03 048 5.0
2019-Dec-09 11:58 046 1 gusting 4 5.0
2019-Dec-09 11:53 071 5.6
2019-Dec-09 11:48 054 1 gusting 4 5.0
2019-Dec-09 11:43 071 1 gusting 4 5.0
2019-Dec-09 11:38 078 5.0
2019-Dec-09 11:33 066 5.0
2019-Dec-09 11:27 066 1 gusting 4 5.0
2019-Dec-09 11:22 064 5.0
2019-Dec-09 11:17 055 1 gusting 4 5.0
2019-Dec-09 11:12 064 5.0
2019-Dec-09 11:07 064 1 gusting 4 5.0
2019-Dec-09 11:02 064 5.0
2019-Dec-09 10:57 063 5.6
2019-Dec-09 10:52 072 5.0
2019-Dec-09 10:46 057 5.0
2019-Dec-09 10:41 082 5.6
2019-Dec-09 10:36 072 5.6
2019-Dec-09 10:31
2019-Dec-09 10:26 029 5.0
2019-Dec-09 10:21 029 5.0
2019-Dec-09 10:12
2019-Dec-09 09:52 079 5.0
2019-Dec-09 09:46 067 5.6
2019-Dec-09 09:41 061 5.0
2019-Dec-09 09:35 071 5.0
2019-Dec-09 09:30 078 5.0
2019-Dec-09 09:25 075 5.0
2019-Dec-09 09:18 080 5.0
2019-Dec-09 09:12 077 4.4
2019-Dec-09 09:07 035 4.4
2019-Dec-09 09:01 043 4.4
2019-Dec-09 08:55 093 4.4
2019-Dec-09 08:50 090 4.4
2019-Dec-09 08:44 098 4.4
2019-Dec-09 08:39 108 0 gusting 1 4.4
2019-Dec-09 08:34 092 4.4
2019-Dec-09 08:29 072 4.4
2019-Dec-09 08:24 048 4.4
2019-Dec-09 08:19 055 4.4
2019-Dec-09 08:14 054 4.4
2019-Dec-09 08:09 053 4.4
2019-Dec-09 08:04 038 4.4
2019-Dec-09 07:59 071 4.4
2019-Dec-09 07:51 083 4.4
2019-Dec-09 07:46 085 4.4
2019-Dec-09 07:41 084 4.4
2019-Dec-09 07:36 074 4.4
2019-Dec-09 07:31 074 4.4
2019-Dec-09 07:26 073 4.4
2019-Dec-09 07:21 073 4.4
2019-Dec-09 07:16 075 4.4
2019-Dec-09 07:11 076 4.4
2019-Dec-09 07:05 076 4.4
2019-Dec-09 07:00 076 4.4
2019-Dec-09 06:55 075 4.4
2019-Dec-09 06:50 077 4.4
2019-Dec-09 06:45 077 3.9
2019-Dec-09 06:40 077 3.9
2019-Dec-09 06:35 077 3.9
2019-Dec-09 06:30 077 3.9
2019-Dec-09 06:25 077 3.9
2019-Dec-09 06:20 077 3.9
2019-Dec-09 06:15 077 3.9
2019-Dec-09 06:09 077 4.4
2019-Dec-09 06:04 077 4.4
2019-Dec-09 05:59 078 4.4
2019-Dec-09 05:54 088 4.4
2019-Dec-09 05:49 077 4.4
2019-Dec-09 05:44 078 5.0
2019-Dec-09 05:39 055 4.4
2019-Dec-09 05:34 054 4.4
2019-Dec-09 05:29 330 5.0
2019-Dec-09 05:24 120 5.0
2019-Dec-09 05:19 099 5.0
2019-Dec-09 05:14 117 5.0
2019-Dec-09 05:09 075 5.0
2019-Dec-09 05:04 112 5.0
2019-Dec-09 04:59 094 5.0
2019-Dec-09 04:54 094 5.0
2019-Dec-09 04:49 094 5.0
2019-Dec-09 04:44 094 5.0
2019-Dec-09 04:39 094 5.0
2019-Dec-09 04:34 094 5.0
2019-Dec-09 04:28 188 4.4
2019-Dec-09 04:23 112 4.4
2019-Dec-09 04:18 106 4.4
2019-Dec-09 04:12 092 4.4
2019-Dec-09 04:07 149 4.4
2019-Dec-09 04:02 117 4.4
2019-Dec-09 03:57 118 4.4
2019-Dec-09 03:52 125 4.4
2019-Dec-09 03:47 102 4.4
2019-Dec-09 03:42 133 4.4
2019-Dec-09 03:36 100 4.4
2019-Dec-09 03:31 095 4.4
2019-Dec-09 03:26 101 4.4
2019-Dec-09 03:21 121 0 gusting 1 4.4
2019-Dec-09 03:15 104 4.4
2019-Dec-09 03:10 107 3.9
2019-Dec-09 03:05 105 3.9
2019-Dec-09 02:59 101 3.9
2019-Dec-09 02:54 089 3.9
2019-Dec-09 02:49 096 3.9
2019-Dec-09 02:44 113 3.9
2019-Dec-09 02:39 097 3.9
2019-Dec-09 02:34 105 3.3
2019-Dec-09 02:29 096 3.3
2019-Dec-09 02:23 104 3.3
2019-Dec-09 02:18 162 3.3
2019-Dec-09 02:13 087 2.8
2019-Dec-09 02:08 105 3.3
2019-Dec-09 02:03 063 3.3
2019-Dec-09 01:58 047 3.3
2019-Dec-09 01:52 046 3.3
2019-Dec-09 01:47 242 3.3
2019-Dec-09 01:42 230 3.3
2019-Dec-09 01:37 117 3.3
2019-Dec-09 01:32 138 3.3
2019-Dec-09 01:27 094 3.3
2019-Dec-09 01:22 102 3.3
2019-Dec-09 01:16 111 3.3
2019-Dec-09 01:11 112 3.3
2019-Dec-09 01:06 108 3.3
2019-Dec-09 01:01 188 3.3
2019-Dec-09 00:56 101 3.3
2019-Dec-09 00:51 110 3.3
2019-Dec-09 00:46 100 3.3
2019-Dec-09 00:41 103 3.3
2019-Dec-09 00:36 128 3.3
2019-Dec-09 00:31 124 3.3
2019-Dec-09 00:26 100 3.3
2019-Dec-09 00:21 118 3.3
2019-Dec-09 00:15 196 3.3
2019-Dec-09 00:10 167 3.3
2019-Dec-09 00:05 229 3.3
2019-Dec-09 00:00 232 3.9
2019-Dec-08 23:55 113 3.9
2019-Dec-08 23:50 220 3.9
2019-Dec-08 23:45 106 3.9
2019-Dec-08 23:40 204 3.9
2019-Dec-08 23:35 114 3.3
2019-Dec-08 23:29 116 0 gusting 1 3.9
2019-Dec-08 23:24 136 3.3
2019-Dec-08 23:19 147 3.9
2019-Dec-08 23:14 070 3.9
2019-Dec-08 23:09 110 3.9
2019-Dec-08 23:04 103 3.9
2019-Dec-08 22:59 145 3.9
2019-Dec-08 22:54 077 3.9
2019-Dec-08 22:49 151 3.9
2019-Dec-08 22:43 159 3.9
2019-Dec-08 22:38 194 0 gusting 6 3.9
2019-Dec-08 22:33 113 4.4
2019-Dec-08 22:28 104 0 gusting 4 4.4
2019-Dec-08 22:23 158 1 gusting 6 4.4
2019-Dec-08 22:18 242 3 gusting 8 4.4
2019-Dec-08 22:13 167 1 gusting 8 4.4
2019-Dec-08 22:08 154 5 gusting 8 4.4
2019-Dec-08 22:03 134 4.4
2019-Dec-08 21:58 099 1 gusting 11 4.4
2019-Dec-08 21:52 161 1 gusting 6 4.4
2019-Dec-08 21:47 149 1 gusting 6 4.4
2019-Dec-08 21:42 152 1 gusting 6 4.4
2019-Dec-08 21:37 114 0 gusting 6 4.4
2019-Dec-08 21:32 167 3 gusting 6 4.4
2019-Dec-08 21:27 199 3 gusting 8 4.4
2019-Dec-08 21:22 152 1 gusting 8 4.4
2019-Dec-08 21:17 140 4.4
2019-Dec-08 21:12 231 2 gusting 8 4.4
2019-Dec-08 21:06 181 2 gusting 11 4.4
2019-Dec-08 21:01 143 4 gusting 11 4.4
2019-Dec-08 20:56 179 6 gusting 13 4.4
2019-Dec-08 20:51 110 10 gusting 13 4.4
2019-Dec-08 20:46 196 2 gusting 13 4.4
2019-Dec-08 20:41 086 4 gusting 13 4.4
2019-Dec-08 20:36 137 5 gusting 11 4.4
2019-Dec-08 20:30 161 1 gusting 11 4.4
2019-Dec-08 20:25 111 4 gusting 8 4.4
2019-Dec-08 20:20 145 1 gusting 8 4.4
2019-Dec-08 20:15 087 0 gusting 11 4.4
2019-Dec-08 20:10 161 1 gusting 11 4.4
2019-Dec-08 20:05 146 1 gusting 11 4.4
2019-Dec-08 20:00 101 7 gusting 14 4.4
2019-Dec-08 19:55 187 2 gusting 14 4.4
2019-Dec-08 19:49 190 3 gusting 13 4.4
2019-Dec-08 19:44 135 5 gusting 13 4.4
2019-Dec-08 19:39 112 2 gusting 13 4.4
2019-Dec-08 19:34 081 2 gusting 11 4.4
2019-Dec-08 19:29 146 1 gusting 8 4.4
2019-Dec-08 19:24 191 3 gusting 8 4.4
2019-Dec-08 19:19 159 4 gusting 8 4.4
2019-Dec-08 19:13 102 3 gusting 13 5.0
2019-Dec-08 19:08 019 1 gusting 13 4.4
2019-Dec-08 19:03 230 4 gusting 8 4.4
2019-Dec-08 18:58 307 1 gusting 8 4.4
2019-Dec-08 18:53 122 1 gusting 8 4.4
2019-Dec-08 18:48 332 4.4
2019-Dec-08 18:43 141 7 gusting 17 4.4
2019-Dec-08 18:37 102 5 gusting 11 4.4
2019-Dec-08 18:32 097 5 gusting 8 4.4
2019-Dec-08 18:27 166 0 gusting 8 4.4
2019-Dec-08 18:22 314 5 gusting 8 4.4
2019-Dec-08 18:17 312 2 gusting 8 4.4
2019-Dec-08 18:12 183 5.0
2019-Dec-08 18:07 164 1 gusting 13 4.4
2019-Dec-08 18:02 245 0 gusting 11 5.0
2019-Dec-08 17:57 195 2 gusting 11 5.0
2019-Dec-08 17:51 189 10.6
2019-Dec-08 17:46 048 16.7
2019-Dec-08 17:41 223 11.7
2019-Dec-08 17:36 086 4.4
2019-Dec-08 17:31 263 1 gusting 8 4.4
2019-Dec-08 17:26 202 2 gusting 11 4.4
2019-Dec-08 17:21 267 4 gusting 11 3.9
2019-Dec-08 17:15 031 2 gusting 11 3.9
2019-Dec-08 17:10 257 2 gusting 11 3.3
2019-Dec-08 17:05 139 5 gusting 11 3.3
2019-Dec-08 17:00 123 3 gusting 11 3.3
2019-Dec-08 16:55 224 4 gusting 11 3.3
2019-Dec-08 16:50 131 2.8
2019-Dec-08 16:45 129 8 gusting 13 2.8
2019-Dec-08 16:39 148 1 gusting 11 2.8
2019-Dec-08 16:34 213 3 gusting 11 2.8
2019-Dec-08 16:29 120 7 gusting 11 3.3
2019-Dec-08 16:24 141 6 gusting 11 2.8
2019-Dec-08 16:19 224 1 gusting 11 2.2
2019-Dec-08 16:14 122 3 gusting 8 2.2
2019-Dec-08 16:09 127 1 gusting 8 2.2
2019-Dec-08 16:03 114 6 gusting 11 1.7
2019-Dec-08 15:58 067 1 gusting 11 2.2
2019-Dec-08 15:53 154 2 gusting 8 1.7
2019-Dec-08 15:48 205 2 gusting 8 1.7
2019-Dec-08 15:43 132 5 gusting 13 1.7
2019-Dec-08 15:38 169 3 gusting 13 1.7
2019-Dec-08 15:32 146 4 gusting 8 1.7
2019-Dec-08 15:27 119 5 gusting 8 1.1
2019-Dec-08 15:22 120 6 gusting 13 1.1
2019-Dec-08 15:17 119 3 gusting 13 1.1
2019-Dec-08 15:12 117 1 gusting 11 1.7
2019-Dec-08 15:07 126 2 gusting 11 1.1
2019-Dec-08 15:02 094 1 gusting 6 1.1
2019-Dec-08 14:57 195 0 gusting 8 0.6
2019-Dec-08 14:51 151 2 gusting 8 0.6
2019-Dec-08 14:46 113 2 gusting 4 1.1
2019-Dec-08 14:41 125 0 gusting 4 0.6
2019-Dec-08 14:36 135 2 gusting 4 0.6
2019-Dec-08 14:31 175 0 gusting 4 -0.0
2019-Dec-08 14:26 127 3 gusting 6 -0.0
2019-Dec-08 14:21 145 3 gusting 6 -0.0
2019-Dec-08 14:15 090 -0.0
2019-Dec-08 14:10 066 0 gusting 6 -0.0
2019-Dec-08 14:05 146 -0.6
2019-Dec-08 14:00 139 -0.0
2019-Dec-08 13:55 161 6 gusting 8 -0.6
2019-Dec-08 13:50 119 -0.6
2019-Dec-08 13:45 143 -0.0
2019-Dec-08 13:39 128 -0.6
2019-Dec-08 13:34 127 -0.6
2019-Dec-08 13:29 124 -0.6
2019-Dec-08 13:24 136 -0.6
2019-Dec-08 13:19 097 -0.6
2019-Dec-08 13:14 087 -0.6
2019-Dec-08 13:09 112 -1.1
2019-Dec-08 13:03 092 -1.1
2019-Dec-08 12:58 093 -1.7
2019-Dec-08 12:53 072 -2.8
2019-Dec-08 12:48 085 -3.3
2019-Dec-08 12:43 069 -3.9
2019-Dec-08 12:38 068 -4.4
2019-Dec-08 12:33 086 -4.4
2019-Dec-08 12:28 103 -3.9
2019-Dec-08 12:22 098 -4.4
2019-Dec-08 12:17 106 -4.4
2019-Dec-08 12:12 098 -4.4
2019-Dec-08 12:07 094 -4.4
2019-Dec-08 12:02 101 -4.4
2019-Dec-08 11:57 097 -4.4
2019-Dec-08 11:52 098 -4.4
2019-Dec-08 11:47 098 -4.4
2019-Dec-08 11:41 105 -4.4
2019-Dec-08 11:36 094 -4.4
2019-Dec-08 11:31 099 -4.4
2019-Dec-08 11:26 093 -3.9
2019-Dec-08 11:21 098 -3.9
2019-Dec-08 11:16 090 -4.4
2019-Dec-08 11:10 090 -3.9
2019-Dec-08 11:05 090 -3.9
2019-Dec-08 11:00 091 -3.9
2019-Dec-08 10:55 103 -3.9
2019-Dec-08 10:50 105 -4.4
2019-Dec-08 10:45 119 -4.4
2019-Dec-08 10:40 113 -4.4
2019-Dec-08 10:35 104 -5.0
2019-Dec-08 10:29 094 -5.0
2019-Dec-08 10:23 094 -5.0
2019-Dec-08 10:18 098 -5.0
2019-Dec-08 10:11 098 -5.0
2019-Dec-08 10:04 098 -4.4
2019-Dec-08 09:59 099 -4.4
2019-Dec-08 09:52 099 -4.4
2019-Dec-08 09:46 103 -4.4
2019-Dec-08 09:41 097 -5.0
2019-Dec-08 09:35 098 -5.0
2019-Dec-08 09:28 098 -5.0
2019-Dec-08 09:22 097 -4.4
2019-Dec-08 09:17 097 -4.4
2019-Dec-08 09:11 098 -4.4
2019-Dec-08 09:06 097 -4.4
2019-Dec-08 09:01 097 -3.9
2019-Dec-08 08:56 099 -3.9
2019-Dec-08 08:47 101 -3.3
2019-Dec-08 08:42 107 -3.3
2019-Dec-08 08:36 115 -3.3
2019-Dec-08 08:31 106 -3.3
2019-Dec-08 08:24 102 -3.9
2019-Dec-08 08:19 099 -3.9
2019-Dec-08 08:14 102 -3.3
2019-Dec-08 08:09 107 -3.3
2019-Dec-08 08:04 116 -3.9
2019-Dec-08 07:56 103 -3.9
2019-Dec-08 07:50 103 -3.9
2019-Dec-08 07:45 103 -3.9
2019-Dec-08 07:40 100 -3.9
2019-Dec-08 07:35 095 -3.9
2019-Dec-08 07:29 095 -3.9
2019-Dec-08 07:24 095 -3.9
2019-Dec-08 07:19 095 -3.9
2019-Dec-08 07:13 095 -3.3
2019-Dec-08 07:08 095 -3.3
2019-Dec-08 07:03 095 -3.3
2019-Dec-08 06:58 105 -3.3
2019-Dec-08 06:52 106 -3.3
2019-Dec-08 06:47 106 -3.3
2019-Dec-08 06:41 106 -3.3
2019-Dec-08 06:35 106 -3.3
2019-Dec-08 06:30 106 -3.3
2019-Dec-08 06:25 106 -3.3
2019-Dec-08 06:20 106 -3.3
2019-Dec-08 06:15 105 -2.8
2019-Dec-08 06:10 098 -3.3
2019-Dec-08 06:05 078 -3.3
2019-Dec-08 06:00 085 -3.3
2019-Dec-08 05:55 085 -2.8
2019-Dec-08 05:50 085 -2.8
2019-Dec-08 05:44 084 -2.8
2019-Dec-08 05:39 078 -2.2
2019-Dec-08 05:34 076 -1.7
2019-Dec-08 05:29 068 -1.7
2019-Dec-08 05:24 061 -2.2
2019-Dec-08 05:19 067 -2.2
2019-Dec-08 05:14 072 -2.2
2019-Dec-08 05:08 062 -2.2
2019-Dec-08 05:03 339 -2.2
2019-Dec-08 04:58 063 -2.2
2019-Dec-08 04:53 052 -2.2
2019-Dec-08 04:46 083 -2.2
2019-Dec-08 04:41 089 -2.2
2019-Dec-08 04:36 079 -1.7
2019-Dec-08 04:31 058 -1.7
2019-Dec-08 04:26 012 -1.7
2019-Dec-08 04:20 017 -1.7
2019-Dec-08 04:15 025 -1.7
2019-Dec-08 04:10 054 -1.1
2019-Dec-08 04:05 004 -1.1
2019-Dec-08 04:00 346 -1.1
2019-Dec-08 03:55 007 -1.1
2019-Dec-08 03:50 307 -1.1
2019-Dec-08 03:45 313 -1.1
2019-Dec-08 03:40 334 -1.1
2019-Dec-08 03:35 334 -1.1
2019-Dec-08 03:30 002 -0.6
2019-Dec-08 03:25 097 -0.6
2019-Dec-08 03:20 016 0 gusting 6 -0.6
2019-Dec-08 03:14 329 2 gusting 6 -0.6
2019-Dec-08 03:09 354 -0.6
2019-Dec-08 03:04 026 -0.6
2019-Dec-08 02:59 356 2 gusting 6 -0.6
2019-Dec-08 02:54 002 1 gusting 4 -0.6
2019-Dec-08 02:49 024 1 gusting 6 -0.6
2019-Dec-08 02:43 012 1 gusting 6 -0.6
2019-Dec-08 02:38 351 1 gusting 6 -0.6
2019-Dec-08 02:33 015 -0.6
2019-Dec-08 02:28 357 -0.6
2019-Dec-08 02:23 357 1 gusting 8 -0.6
2019-Dec-08 02:18 009 3 gusting 4 -0.6
2019-Dec-08 02:13 335 1 gusting 6 -0.6
2019-Dec-08 02:08 012 4 gusting 6 -0.6
2019-Dec-08 02:03 352 0 gusting 6 -0.0
2019-Dec-08 01:58 024 5 gusting 6 -0.6
2019-Dec-08 01:52 -0.0
2019-Dec-08 01:47 359 2 gusting 8 -0.0
2019-Dec-08 01:42 356 1 gusting 8 -0.0
2019-Dec-08 01:37 340 2 gusting 8 -0.0
2019-Dec-08 01:32 013 2 gusting 8 -0.0
2019-Dec-08 01:27 018 4 gusting 8 -0.0
2019-Dec-08 01:22 351 0 gusting 6 -0.0
2019-Dec-08 01:16 311 3 gusting 8 -0.0
2019-Dec-08 01:11 001 4 gusting 8 -0.0
2019-Dec-08 01:06 024 3 gusting 6 -0.0
2019-Dec-08 01:01 329 2 gusting 6 -0.0
2019-Dec-08 00:56 283 2 gusting 6 -0.0
2019-Dec-08 00:51 306 3 gusting 6 0.6
2019-Dec-08 00:45 316 3 gusting 4 0.6
2019-Dec-08 00:40 301 1 gusting 8 0.6
2019-Dec-08 00:35 342 1 gusting 8 0.6
2019-Dec-08 00:30 043 5 gusting 6 0.6
2019-Dec-08 00:25 004 2 gusting 6 0.6
2019-Dec-08 00:20 043 1 gusting 6 0.6
2019-Dec-08 00:15 329 2 gusting 11 0.6
2019-Dec-08 00:10 006 1 gusting 11 0.6
2019-Dec-08 00:04 032 5 gusting 8 0.6
2019-Dec-07 23:59 351 3 gusting 8 0.6
2019-Dec-07 23:54 339 3 gusting 6 0.6
2019-Dec-07 23:49 020 1 gusting 8 0.6
2019-Dec-07 23:44 336 2 gusting 8 0.6
2019-Dec-07 23:39 006 1 gusting 6 0.6
2019-Dec-07 23:33 347 1 gusting 6 1.1
2019-Dec-07 23:28 341 1 gusting 6 1.1
2019-Dec-07 23:23 335 3 gusting 6 0.6
2019-Dec-07 23:18 021 0.6
2019-Dec-07 23:13 355 1 gusting 6 1.1
2019-Dec-07 23:08 355 1.1
2019-Dec-07 23:03 344 0 gusting 4 1.1